Year,Month,Day,Hour,Minute,Value (Times are PST for temperature in C)
2013,03,31,00,00,7.80
2013,03,31,00,01,7.80
2013,03,31,00,02,7.80
2013,03,31,00,03,7.80
2013,03,31,00,04,7.80
2013,03,31,00,05,7.80
2013,03,31,00,06,7.80
2013,03,31,00,07,7.80
2013,03,31,00,08,7.80
2013,03,31,00,09,7.80
2013,03,31,00,10,7.80
2013,03,31,00,11,7.80
2013,03,31,00,12,7.80
2013,03,31,00,13,7.80
2013,03,31,00,14,7.80
2013,03,31,00,15,7.80
2013,03,31,00,16,7.80
2013,03,31,00,17,7.80
2013,03,31,00,18,7.70
2013,03,31,00,19,7.70
2013,03,31,00,20,7.70
2013,03,31,00,21,7.70
2013,03,31,00,22,7.70
2013,03,31,00,23,7.70
2013,03,31,00,24,7.70
2013,03,31,00,25,7.70
2013,03,31,00,26,7.60
2013,03,31,00,27,7.60
2013,03,31,00,28,7.60
2013,03,31,00,29,7.60
2013,03,31,00,30,7.50
2013,03,31,00,31,7.50
2013,03,31,00,32,7.50
2013,03,31,00,33,7.50
2013,03,31,00,34,7.40
2013,03,31,00,35,7.40
2013,03,31,00,36,7.40
2013,03,31,00,37,7.40
2013,03,31,00,38,7.40
2013,03,31,00,39,7.30
2013,03,31,00,40,7.30
2013,03,31,00,41,7.20
2013,03,31,00,42,7.20
2013,03,31,00,43,7.20
2013,03,31,00,44,7.20
2013,03,31,00,45,7.20
2013,03,31,00,46,7.20
2013,03,31,00,47,7.20
2013,03,31,00,48,7.20
2013,03,31,00,49,7.20
2013,03,31,00,50,7.20
2013,03,31,00,51,7.30
2013,03,31,00,52,7.30
2013,03,31,00,53,7.30
2013,03,31,00,54,7.30
2013,03,31,00,55,7.30
2013,03,31,00,56,7.20
2013,03,31,00,57,7.20
2013,03,31,00,58,7.20
2013,03,31,00,59,7.30
2013,03,31,01,00,7.30
2013,03,31,01,01,7.30
2013,03,31,01,02,7.30
2013,03,31,01,03,7.30
2013,03,31,01,04,7.30
2013,03,31,01,05,7.30
2013,03,31,01,06,7.30
2013,03,31,01,07,7.30
2013,03,31,01,08,7.30
2013,03,31,01,09,7.30
2013,03,31,01,10,7.30
2013,03,31,01,11,7.30
2013,03,31,01,12,7.30
2013,03,31,01,13,7.30
2013,03,31,01,14,7.40
2013,03,31,01,15,7.40
2013,03,31,01,16,7.40
2013,03,31,01,17,7.40
2013,03,31,01,18,7.40
2013,03,31,01,19,7.30
2013,03,31,01,20,7.30
2013,03,31,01,21,7.30
2013,03,31,01,22,7.30
2013,03,31,01,23,7.30
2013,03,31,01,24,7.30
2013,03,31,01,25,7.30
2013,03,31,01,26,7.30
2013,03,31,01,27,7.30
2013,03,31,01,28,7.30
2013,03,31,01,29,7.20
2013,03,31,01,30,7.20
2013,03,31,01,31,7.20
2013,03,31,01,32,7.30
2013,03,31,01,33,7.30
2013,03,31,01,34,7.30
2013,03,31,01,35,7.40
2013,03,31,01,36,7.40
2013,03,31,01,37,7.50
2013,03,31,01,38,7.50
2013,03,31,01,39,7.50
2013,03,31,01,40,7.50
2013,03,31,01,41,7.60
2013,03,31,01,42,7.60
2013,03,31,01,43,7.60
2013,03,31,01,44,7.60
2013,03,31,01,45,7.60
2013,03,31,01,46,7.70
2013,03,31,01,47,7.70
2013,03,31,01,48,7.70
2013,03,31,01,49,7.70
2013,03,31,01,50,7.80
2013,03,31,01,51,7.80
2013,03,31,01,52,7.80
2013,03,31,01,53,7.80
2013,03,31,01,54,7.80
2013,03,31,01,55,7.80
2013,03,31,01,56,7.80
2013,03,31,01,57,7.80
2013,03,31,01,58,7.80
2013,03,31,01,59,7.80
2013,03,31,02,00,7.80
2013,03,31,02,01,7.80
2013,03,31,02,02,7.80
2013,03,31,02,03,7.80
2013,03,31,02,04,7.80
2013,03,31,02,05,7.80
2013,03,31,02,06,7.80
2013,03,31,02,07,7.70
2013,03,31,02,08,7.70
2013,03,31,02,09,7.70
2013,03,31,02,10,7.60
2013,03,31,02,11,7.60
2013,03,31,02,12,7.60
2013,03,31,02,13,7.60
2013,03,31,02,14,7.60
2013,03,31,02,15,7.60
2013,03,31,02,16,7.60
2013,03,31,02,17,7.60
2013,03,31,02,18,7.60
2013,03,31,02,19,7.60
2013,03,31,02,20,7.70
2013,03,31,02,21,7.70
2013,03,31,02,22,7.70
2013,03,31,02,23,7.70
2013,03,31,02,24,7.70
2013,03,31,02,25,7.70
2013,03,31,02,26,7.70
2013,03,31,02,27,7.70
2013,03,31,02,28,7.80
2013,03,31,02,29,7.80
2013,03,31,02,30,7.80
2013,03,31,02,31,7.80
2013,03,31,02,32,7.80
2013,03,31,02,33,7.70
2013,03,31,02,34,7.70
2013,03,31,02,35,7.70
2013,03,31,02,36,7.70
2013,03,31,02,37,7.80
2013,03,31,02,38,7.80
2013,03,31,02,39,7.80
2013,03,31,02,40,7.80
2013,03,31,02,41,7.90
2013,03,31,02,42,7.90
2013,03,31,02,43,7.90
2013,03,31,02,44,7.90
2013,03,31,02,45,8.00
2013,03,31,02,46,8.00
2013,03,31,02,47,8.00
2013,03,31,02,48,8.00
2013,03,31,02,49,8.10
2013,03,31,02,50,8.10
2013,03,31,02,51,8.10
2013,03,31,02,52,8.10
2013,03,31,02,53,8.20
2013,03,31,02,54,8.10
2013,03,31,02,55,8.10
2013,03,31,02,56,8.10
2013,03,31,02,57,8.10
2013,03,31,02,58,8.10
2013,03,31,02,59,8.10
2013,03,31,03,00,8.10
2013,03,31,03,01,8.10
2013,03,31,03,02,8.10
2013,03,31,03,03,8.10
2013,03,31,03,04,8.10
2013,03,31,03,05,8.10
2013,03,31,03,06,8.10
2013,03,31,03,07,8.10
2013,03,31,03,08,8.20
2013,03,31,03,09,8.20
2013,03,31,03,10,8.20
2013,03,31,03,11,8.30
2013,03,31,03,12,8.30
2013,03,31,03,13,8.30
2013,03,31,03,14,8.30
2013,03,31,03,15,8.40
2013,03,31,03,16,8.40
2013,03,31,03,17,8.40
2013,03,31,03,18,8.40
2013,03,31,03,19,8.40
2013,03,31,03,20,8.40
2013,03,31,03,21,8.40
2013,03,31,03,22,8.40
2013,03,31,03,23,8.40
2013,03,31,03,24,8.40
2013,03,31,03,25,8.30
2013,03,31,03,26,8.30
2013,03,31,03,27,8.30
2013,03,31,03,28,8.30
2013,03,31,03,29,8.20
2013,03,31,03,30,8.20
2013,03,31,03,31,8.10
2013,03,31,03,32,8.10
2013,03,31,03,33,8.00
2013,03,31,03,34,7.90
2013,03,31,03,35,7.90
2013,03,31,03,36,7.90
2013,03,31,03,37,7.90
2013,03,31,03,38,7.80
2013,03,31,03,39,7.80
2013,03,31,03,40,7.80
2013,03,31,03,41,7.80
2013,03,31,03,42,7.80
2013,03,31,03,43,7.80
2013,03,31,03,44,7.80
2013,03,31,03,45,7.80
2013,03,31,03,46,7.80
2013,03,31,03,47,7.80
2013,03,31,03,48,7.80
2013,03,31,03,49,7.80
2013,03,31,03,50,7.80
2013,03,31,03,51,7.80
2013,03,31,03,52,7.80
2013,03,31,03,53,7.80
2013,03,31,03,54,7.80
2013,03,31,03,55,7.80
2013,03,31,03,56,7.80
2013,03,31,03,57,7.80
2013,03,31,03,58,7.70
2013,03,31,03,59,7.70
2013,03,31,04,00,7.80
2013,03,31,04,01,7.80
2013,03,31,04,02,7.80
2013,03,31,04,03,7.80
2013,03,31,04,04,7.80
2013,03,31,04,05,7.80
2013,03,31,04,06,7.70
2013,03,31,04,07,7.70
2013,03,31,04,08,7.70
2013,03,31,04,09,7.70
2013,03,31,04,10,7.70
2013,03,31,04,11,7.70
2013,03,31,04,12,7.70
2013,03,31,04,13,7.80
2013,03,31,04,14,7.80
2013,03,31,04,15,7.80
2013,03,31,04,16,7.80
2013,03,31,04,17,7.80
2013,03,31,04,18,7.80
2013,03,31,04,19,7.80
2013,03,31,04,20,7.80
2013,03,31,04,21,7.80
2013,03,31,04,22,7.90
2013,03,31,04,23,7.90
2013,03,31,04,24,8.00
2013,03,31,04,25,8.00
2013,03,31,04,26,8.00
2013,03,31,04,27,8.10
2013,03,31,04,28,8.10
2013,03,31,04,29,8.10
2013,03,31,04,30,8.10
2013,03,31,04,31,8.10
2013,03,31,04,32,8.10
2013,03,31,04,33,8.20
2013,03,31,04,34,8.20
2013,03,31,04,35,8.10
2013,03,31,04,36,8.10
2013,03,31,04,37,8.10
2013,03,31,04,38,8.10
2013,03,31,04,39,8.10
2013,03,31,04,40,8.10
2013,03,31,04,41,8.10
2013,03,31,04,42,8.10
2013,03,31,04,43,8.10
2013,03,31,04,44,8.10
2013,03,31,04,45,8.10
2013,03,31,04,46,8.20
2013,03,31,04,47,8.20
2013,03,31,04,48,8.30
2013,03,31,04,49,8.30
2013,03,31,04,50,8.30
2013,03,31,04,51,8.30
2013,03,31,04,52,8.30
2013,03,31,04,53,8.30
2013,03,31,04,54,8.20
2013,03,31,04,55,8.20
2013,03,31,04,56,8.20
2013,03,31,04,57,8.20
2013,03,31,04,58,8.20
2013,03,31,04,59,8.10
2013,03,31,05,00,8.10
2013,03,31,05,01,8.10
2013,03,31,05,02,8.10
2013,03,31,05,03,8.10
2013,03,31,05,04,8.00
2013,03,31,05,05,8.00
2013,03,31,05,06,8.00
2013,03,31,05,07,8.00
2013,03,31,05,08,7.90
2013,03,31,05,09,7.90
2013,03,31,05,10,7.90
2013,03,31,05,11,7.90
2013,03,31,05,12,7.90
2013,03,31,05,13,7.90
2013,03,31,05,14,7.90
2013,03,31,05,15,7.80
2013,03,31,05,16,7.80
2013,03,31,05,17,7.80
2013,03,31,05,18,7.80
2013,03,31,05,19,7.80
2013,03,31,05,20,7.70
2013,03,31,05,21,7.70
2013,03,31,05,22,7.70
2013,03,31,05,23,7.70
2013,03,31,05,24,7.70
2013,03,31,05,25,7.70
2013,03,31,05,26,7.60
2013,03,31,05,27,7.60
2013,03,31,05,28,7.50
2013,03,31,05,29,7.40
2013,03,31,05,30,7.30
2013,03,31,05,31,7.30
2013,03,31,05,32,7.20
2013,03,31,05,33,7.20
2013,03,31,05,34,7.10
2013,03,31,05,35,7.10
2013,03,31,05,36,7.00
2013,03,31,05,37,7.00
2013,03,31,05,38,6.90
2013,03,31,05,39,6.90
2013,03,31,05,40,6.90
2013,03,31,05,41,6.90
2013,03,31,05,42,6.90
2013,03,31,05,43,6.90
2013,03,31,05,44,6.90
2013,03,31,05,45,6.90
2013,03,31,05,46,6.90
2013,03,31,05,47,6.90
2013,03,31,05,48,6.90
2013,03,31,05,49,6.90
2013,03,31,05,50,7.00
2013,03,31,05,51,7.00
2013,03,31,05,52,7.00
2013,03,31,05,53,7.00
2013,03,31,05,54,7.10
2013,03,31,05,55,7.10
2013,03,31,05,56,7.10
2013,03,31,05,57,7.00
2013,03,31,05,58,7.00
2013,03,31,05,59,7.00
2013,03,31,06,00,7.00
2013,03,31,06,01,7.00
2013,03,31,06,02,7.00
2013,03,31,06,03,7.00
2013,03,31,06,04,7.00
2013,03,31,06,05,7.00
2013,03,31,06,06,7.00
2013,03,31,06,07,7.00
2013,03,31,06,08,7.00
2013,03,31,06,09,7.00
2013,03,31,06,10,7.00
2013,03,31,06,11,7.00
2013,03,31,06,12,7.00
2013,03,31,06,13,7.00
2013,03,31,06,14,7.00
2013,03,31,06,15,7.10
2013,03,31,06,16,7.10
2013,03,31,06,17,7.10
2013,03,31,06,18,7.10
2013,03,31,06,19,7.10
2013,03,31,06,20,7.10
2013,03,31,06,21,7.10
2013,03,31,06,22,7.00
2013,03,31,06,23,7.00
2013,03,31,06,24,7.00
2013,03,31,06,25,7.10
2013,03,31,06,26,7.10
2013,03,31,06,27,7.10
2013,03,31,06,28,7.20
2013,03,31,06,29,7.20
2013,03,31,06,30,7.20
2013,03,31,06,31,7.20
2013,03,31,06,32,7.20
2013,03,31,06,33,7.20
2013,03,31,06,34,7.20
2013,03,31,06,35,7.20
2013,03,31,06,36,7.20
2013,03,31,06,37,7.20
2013,03,31,06,38,7.20
2013,03,31,06,39,7.20
2013,03,31,06,40,7.10
2013,03,31,06,41,7.10
2013,03,31,06,42,7.20
2013,03,31,06,43,7.20
2013,03,31,06,44,7.20
2013,03,31,06,45,7.20
2013,03,31,06,46,7.20
2013,03,31,06,47,7.20
2013,03,31,06,48,7.20
2013,03,31,06,49,7.20
2013,03,31,06,50,7.20
2013,03,31,06,51,7.20
2013,03,31,06,52,7.20
2013,03,31,06,53,7.20
2013,03,31,06,54,7.20
2013,03,31,06,55,7.20
2013,03,31,06,56,7.20
2013,03,31,06,57,7.20
2013,03,31,06,58,7.20
2013,03,31,06,59,7.20
2013,03,31,07,00,7.20
2013,03,31,07,01,7.20
2013,03,31,07,02,7.20
2013,03,31,07,03,7.20
2013,03,31,07,04,7.20
2013,03,31,07,05,7.20
2013,03,31,07,06,7.20
2013,03,31,07,07,7.20
2013,03,31,07,08,7.20
2013,03,31,07,09,7.20
2013,03,31,07,10,7.20
2013,03,31,07,11,7.20
2013,03,31,07,12,7.20
2013,03,31,07,13,7.20
2013,03,31,07,14,7.10
2013,03,31,07,15,7.10
2013,03,31,07,16,7.10
2013,03,31,07,17,7.10
2013,03,31,07,18,7.10
2013,03,31,07,19,7.10
2013,03,31,07,20,7.10
2013,03,31,07,21,7.00
2013,03,31,07,22,7.00
2013,03,31,07,23,7.00
2013,03,31,07,24,7.00
2013,03,31,07,25,6.90
2013,03,31,07,26,6.90
2013,03,31,07,27,6.90
2013,03,31,07,28,6.90
2013,03,31,07,29,6.80
2013,03,31,07,30,6.90
2013,03,31,07,31,6.90
2013,03,31,07,32,6.90
2013,03,31,07,33,6.90
2013,03,31,07,34,6.90
2013,03,31,07,35,7.00
2013,03,31,07,36,7.00
2013,03,31,07,37,7.00
2013,03,31,07,38,7.00
2013,03,31,07,39,7.00
2013,03,31,07,40,7.00
2013,03,31,07,41,7.00
2013,03,31,07,42,7.00
2013,03,31,07,43,6.90
2013,03,31,07,44,6.90
2013,03,31,07,45,7.00
2013,03,31,07,46,7.00
2013,03,31,07,47,7.00
2013,03,31,07,48,7.00
2013,03,31,07,49,7.00
2013,03,31,07,50,7.00
2013,03,31,07,51,7.00
2013,03,31,07,52,6.90
2013,03,31,07,53,6.90
2013,03,31,07,54,6.90
2013,03,31,07,55,7.00
2013,03,31,07,56,7.00
2013,03,31,07,57,7.10
2013,03,31,07,58,7.10
2013,03,31,07,59,7.20
2013,03,31,08,00,7.20
2013,03,31,08,01,7.20
2013,03,31,08,02,7.20
2013,03,31,08,03,7.20
2013,03,31,08,04,7.20
2013,03,31,08,05,7.30
2013,03,31,08,06,7.30
2013,03,31,08,07,7.30
2013,03,31,08,08,7.30
2013,03,31,08,09,7.30
2013,03,31,08,10,7.40
2013,03,31,08,11,7.40
2013,03,31,08,12,7.50
2013,03,31,08,13,7.60
2013,03,31,08,14,7.60
2013,03,31,08,15,7.70
2013,03,31,08,16,7.70
2013,03,31,08,17,7.80
2013,03,31,08,18,7.80
2013,03,31,08,19,7.90
2013,03,31,08,20,7.90
2013,03,31,08,21,8.00
2013,03,31,08,22,8.10
2013,03,31,08,23,8.10
2013,03,31,08,24,8.20
2013,03,31,08,25,8.30
2013,03,31,08,26,8.30
2013,03,31,08,27,8.40
2013,03,31,08,28,8.50
2013,03,31,08,29,8.60
2013,03,31,08,30,8.70
2013,03,31,08,31,8.80
2013,03,31,08,32,8.90
2013,03,31,08,33,8.90
2013,03,31,08,34,9.00
2013,03,31,08,35,9.10
2013,03,31,08,36,9.20
2013,03,31,08,37,9.30
2013,03,31,08,38,9.30
2013,03,31,08,39,9.40
2013,03,31,08,40,9.50
2013,03,31,08,41,9.60
2013,03,31,08,42,9.70
2013,03,31,08,43,9.70
2013,03,31,08,44,9.80
2013,03,31,08,45,9.80
2013,03,31,08,46,9.80
2013,03,31,08,47,9.90
2013,03,31,08,48,9.90
2013,03,31,08,49,9.90
2013,03,31,08,50,10.00
2013,03,31,08,51,10.00
2013,03,31,08,52,10.10
2013,03,31,08,53,10.10
2013,03,31,08,54,10.20
2013,03,31,08,55,10.20
2013,03,31,08,56,10.20
2013,03,31,08,57,10.30
2013,03,31,08,58,10.30
2013,03,31,08,59,10.40
2013,03,31,09,00,10.40
2013,03,31,09,01,10.40
2013,03,31,09,02,10.50
2013,03,31,09,03,10.50
2013,03,31,09,04,10.60
2013,03,31,09,05,10.60
2013,03,31,09,06,10.60
2013,03,31,09,07,10.70
2013,03,31,09,08,10.70
2013,03,31,09,09,10.70
2013,03,31,09,10,10.80
2013,03,31,09,11,10.80
2013,03,31,09,12,10.80
2013,03,31,09,13,10.80
2013,03,31,09,14,10.90
2013,03,31,09,15,10.90
2013,03,31,09,16,10.90
2013,03,31,09,17,10.90
2013,03,31,09,18,10.90
2013,03,31,09,19,10.90
2013,03,31,09,20,10.80
2013,03,31,09,21,10.80
2013,03,31,09,22,10.80
2013,03,31,09,23,10.80
2013,03,31,09,24,10.80
2013,03,31,09,25,10.80
2013,03,31,09,26,10.80
2013,03,31,09,27,10.80
2013,03,31,09,28,10.80
2013,03,31,09,29,10.90
2013,03,31,09,30,10.90
2013,03,31,09,31,11.00
2013,03,31,09,32,11.00
2013,03,31,09,33,11.00
2013,03,31,09,34,11.10
2013,03,31,09,35,11.10
2013,03,31,09,36,11.20
2013,03,31,09,37,11.20
2013,03,31,09,38,11.30
2013,03,31,09,39,11.40
2013,03,31,09,40,11.40
2013,03,31,09,41,11.40
2013,03,31,09,42,11.50
2013,03,31,09,43,11.50
2013,03,31,09,44,11.60
2013,03,31,09,45,11.60
2013,03,31,09,46,11.60
2013,03,31,09,47,11.60
2013,03,31,09,48,11.60
2013,03,31,09,49,11.70
2013,03,31,09,50,11.70
2013,03,31,09,51,11.70
2013,03,31,09,52,11.70
2013,03,31,09,53,11.80
2013,03,31,09,54,11.80
2013,03,31,09,55,11.90
2013,03,31,09,56,11.90
2013,03,31,09,57,12.00
2013,03,31,09,58,12.00
2013,03,31,09,59,12.10
2013,03,31,10,00,12.10
2013,03,31,10,01,12.10
2013,03,31,10,02,12.10
2013,03,31,10,03,12.10
2013,03,31,10,04,12.10
2013,03,31,10,05,12.10
2013,03,31,10,06,12.10
2013,03,31,10,07,12.20
2013,03,31,10,08,12.20
2013,03,31,10,09,12.20
2013,03,31,10,10,12.10
2013,03,31,10,11,12.10
2013,03,31,10,12,12.10
2013,03,31,10,13,12.10
2013,03,31,10,14,12.10
2013,03,31,10,15,12.10
2013,03,31,10,16,12.10
2013,03,31,10,17,12.10
2013,03,31,10,18,12.10
2013,03,31,10,19,12.20
2013,03,31,10,20,12.20
2013,03,31,10,21,12.20
2013,03,31,10,22,12.20
2013,03,31,10,23,12.20
2013,03,31,10,24,12.20
2013,03,31,10,25,12.20
2013,03,31,10,26,12.20
2013,03,31,10,27,12.30
2013,03,31,10,28,12.30
2013,03,31,10,29,12.30
2013,03,31,10,30,12.30
2013,03,31,10,31,12.30
2013,03,31,10,32,12.30
2013,03,31,10,33,12.40
2013,03,31,10,34,12.40
2013,03,31,10,35,12.40
2013,03,31,10,36,12.50
2013,03,31,10,37,12.50
2013,03,31,10,38,12.60
2013,03,31,10,39,12.60
2013,03,31,10,40,12.60
2013,03,31,10,41,12.70
2013,03,31,10,42,12.70
2013,03,31,10,43,12.70
2013,03,31,10,44,12.80
2013,03,31,10,45,12.80
2013,03,31,10,46,12.90
2013,03,31,10,47,12.90
2013,03,31,10,48,13.00
2013,03,31,10,49,13.10
2013,03,31,10,50,13.10
2013,03,31,10,51,13.20
2013,03,31,10,52,13.30
2013,03,31,10,53,13.40
2013,03,31,10,54,13.50
2013,03,31,10,55,13.50
2013,03,31,10,56,13.60
2013,03,31,10,57,13.70
2013,03,31,10,58,13.70
2013,03,31,10,59,13.80
2013,03,31,11,00,13.80
2013,03,31,11,01,13.90
2013,03,31,11,02,13.90
2013,03,31,11,03,13.90
2013,03,31,11,04,14.00
2013,03,31,11,05,14.00
2013,03,31,11,06,14.10
2013,03,31,11,07,14.10
2013,03,31,11,08,14.10
2013,03,31,11,09,14.20
2013,03,31,11,10,14.20
2013,03,31,11,11,14.30
2013,03,31,11,12,14.30
2013,03,31,11,13,14.40
2013,03,31,11,14,14.40
2013,03,31,11,15,14.50
2013,03,31,11,16,14.50
2013,03,31,11,17,14.60
2013,03,31,11,18,14.60
2013,03,31,11,19,14.70
2013,03,31,11,20,14.70
2013,03,31,11,21,14.70
2013,03,31,11,22,14.70
2013,03,31,11,23,14.80
2013,03,31,11,24,14.80
2013,03,31,11,25,14.90
2013,03,31,11,26,15.00
2013,03,31,11,27,15.10
2013,03,31,11,28,15.10
2013,03,31,11,29,15.20
2013,03,31,11,30,15.20
2013,03,31,11,31,15.30
2013,03,31,11,32,15.30
2013,03,31,11,33,15.40
2013,03,31,11,34,15.50
2013,03,31,11,35,15.60
2013,03,31,11,36,15.50
2013,03,31,11,37,15.40
2013,03,31,11,38,15.30
2013,03,31,11,39,15.20
2013,03,31,11,40,15.10
2013,03,31,11,41,15.00
2013,03,31,11,42,14.80
2013,03,31,11,43,14.60
2013,03,31,11,44,14.50
2013,03,31,11,45,14.40
2013,03,31,11,46,14.30
2013,03,31,11,47,14.20
2013,03,31,11,48,14.20
2013,03,31,11,49,14.20
2013,03,31,11,50,14.20
2013,03,31,11,51,14.20
2013,03,31,11,52,14.10
2013,03,31,11,53,14.10
2013,03,31,11,54,14.10
2013,03,31,11,55,14.10
2013,03,31,11,56,14.10
2013,03,31,11,57,14.10
2013,03,31,11,58,14.20
2013,03,31,11,59,14.20
2013,03,31,12,00,14.30
2013,03,31,12,01,14.50
2013,03,31,12,02,14.50
2013,03,31,12,03,14.60
2013,03,31,12,04,14.70
2013,03,31,12,05,14.70
2013,03,31,12,06,14.70
2013,03,31,12,07,14.70
2013,03,31,12,08,14.80
2013,03,31,12,09,14.90
2013,03,31,12,10,14.90
2013,03,31,12,11,15.00
2013,03,31,12,12,15.10
2013,03,31,12,13,15.10
2013,03,31,12,14,15.10
2013,03,31,12,15,15.20
2013,03,31,12,16,15.20
2013,03,31,12,17,15.30
2013,03,31,12,18,15.20
2013,03,31,12,19,15.20
2013,03,31,12,20,15.20
2013,03,31,12,21,15.30
2013,03,31,12,22,15.30
2013,03,31,12,23,15.30
2013,03,31,12,24,15.20
2013,03,31,12,25,15.20
2013,03,31,12,26,15.10
2013,03,31,12,27,15.20
2013,03,31,12,28,15.20
2013,03,31,12,29,15.20
2013,03,31,12,30,15.30
2013,03,31,12,31,15.40
2013,03,31,12,32,15.40
2013,03,31,12,33,15.40
2013,03,31,12,34,15.40
2013,03,31,12,35,15.40
2013,03,31,12,36,15.50
2013,03,31,12,37,15.50
2013,03,31,12,38,15.50
2013,03,31,12,39,15.50
2013,03,31,12,40,15.50
2013,03,31,12,41,15.60
2013,03,31,12,42,15.60
2013,03,31,12,43,15.70
2013,03,31,12,44,15.70
2013,03,31,12,45,15.70
2013,03,31,12,46,15.80
2013,03,31,12,47,15.80
2013,03,31,12,48,15.90
2013,03,31,12,49,15.90
2013,03,31,12,50,16.00
2013,03,31,12,51,16.00
2013,03,31,12,52,16.10
2013,03,31,12,53,16.10
2013,03,31,12,54,16.10
2013,03,31,12,55,16.10
2013,03,31,12,56,16.00
2013,03,31,12,57,16.00
2013,03,31,12,58,16.00
2013,03,31,12,59,16.00
2013,03,31,13,00,16.10
2013,03,31,13,01,16.10
2013,03,31,13,02,16.20
2013,03,31,13,03,16.20
2013,03,31,13,04,16.20
2013,03,31,13,05,16.30
2013,03,31,13,06,16.30
2013,03,31,13,07,16.30
2013,03,31,13,08,16.30
2013,03,31,13,09,16.30
2013,03,31,13,10,16.30
2013,03,31,13,11,16.30
2013,03,31,13,12,16.30
2013,03,31,13,13,16.30
2013,03,31,13,14,16.30
2013,03,31,13,15,16.30
2013,03,31,13,16,16.40
2013,03,31,13,17,16.40
2013,03,31,13,18,16.50
2013,03,31,13,19,16.60
2013,03,31,13,20,16.70
2013,03,31,13,21,16.70
2013,03,31,13,22,16.70
2013,03,31,13,23,16.70
2013,03,31,13,24,16.70
2013,03,31,13,25,16.80
2013,03,31,13,26,16.90
2013,03,31,13,27,16.80
2013,03,31,13,28,16.70
2013,03,31,13,29,16.60
2013,03,31,13,30,16.60
2013,03,31,13,31,16.50
2013,03,31,13,32,16.50
2013,03,31,13,33,16.50
2013,03,31,13,34,16.50
2013,03,31,13,35,16.60
2013,03,31,13,36,16.50
2013,03,31,13,37,16.30
2013,03,31,13,38,16.20
2013,03,31,13,39,16.10
2013,03,31,13,40,15.90
2013,03,31,13,41,15.70
2013,03,31,13,42,15.40
2013,03,31,13,43,15.30
2013,03,31,13,44,15.30
2013,03,31,13,45,15.20
2013,03,31,13,46,15.10
2013,03,31,13,47,15.10
2013,03,31,13,48,15.10
2013,03,31,13,49,15.00
2013,03,31,13,50,15.10
2013,03,31,13,51,15.20
2013,03,31,13,52,15.30
2013,03,31,13,53,15.30
2013,03,31,13,54,15.40
2013,03,31,13,55,15.40
2013,03,31,13,56,15.40
2013,03,31,13,57,15.30
2013,03,31,13,58,15.30
2013,03,31,13,59,15.40
2013,03,31,14,00,15.40
2013,03,31,14,01,15.40
2013,03,31,14,02,15.40
2013,03,31,14,03,15.40
2013,03,31,14,04,15.40
2013,03,31,14,05,15.40
2013,03,31,14,06,15.40
2013,03,31,14,07,15.30
2013,03,31,14,08,15.30
2013,03,31,14,09,15.30
2013,03,31,14,10,15.30
2013,03,31,14,11,15.40
2013,03,31,14,12,15.50
2013,03,31,14,13,15.60
2013,03,31,14,14,15.60
2013,03,31,14,15,15.70
2013,03,31,14,16,15.80
2013,03,31,14,17,15.70
2013,03,31,14,18,15.70
2013,03,31,14,19,15.70
2013,03,31,14,20,15.70
2013,03,31,14,21,15.70
2013,03,31,14,22,15.80
2013,03,31,14,23,15.70
2013,03,31,14,24,15.50
2013,03,31,14,25,15.40
2013,03,31,14,26,15.40
2013,03,31,14,27,15.40
2013,03,31,14,28,15.40
2013,03,31,14,29,15.40
2013,03,31,14,30,15.50
2013,03,31,14,31,15.50
2013,03,31,14,32,15.50
2013,03,31,14,33,15.50
2013,03,31,14,34,15.50
2013,03,31,14,35,15.40
2013,03,31,14,36,15.40
2013,03,31,14,37,15.30
2013,03,31,14,38,15.20
2013,03,31,14,39,15.20
2013,03,31,14,40,15.30
2013,03,31,14,41,15.20
2013,03,31,14,42,15.20
2013,03,31,14,43,15.10
2013,03,31,14,44,15.10
2013,03,31,14,45,15.10
2013,03,31,14,46,15.20
2013,03,31,14,47,15.20
2013,03,31,14,48,15.30
2013,03,31,14,49,15.30
2013,03,31,14,50,15.30
2013,03,31,14,51,15.40
2013,03,31,14,52,15.50
2013,03,31,14,53,15.60
2013,03,31,14,54,15.60
2013,03,31,14,55,15.50
2013,03,31,14,56,15.50
2013,03,31,14,57,15.40
2013,03,31,14,58,15.30
2013,03,31,14,59,15.30
2013,03,31,15,00,15.40
2013,03,31,15,01,15.40
2013,03,31,15,02,15.30
2013,03,31,15,03,15.30
2013,03,31,15,04,15.20
2013,03,31,15,05,15.30
2013,03,31,15,06,15.30
2013,03,31,15,07,15.30
2013,03,31,15,08,15.30
2013,03,31,15,09,15.20
2013,03,31,15,10,15.10
2013,03,31,15,11,15.10
2013,03,31,15,12,15.10
2013,03,31,15,13,15.20
2013,03,31,15,14,15.30
2013,03,31,15,15,15.30
2013,03,31,15,16,15.30
2013,03,31,15,17,15.30
2013,03,31,15,18,15.20
2013,03,31,15,19,15.20
2013,03,31,15,20,15.30
2013,03,31,15,21,15.30
2013,03,31,15,22,15.30
2013,03,31,15,23,15.40
2013,03,31,15,24,15.30
2013,03,31,15,25,15.30
2013,03,31,15,26,15.30
2013,03,31,15,27,15.30
2013,03,31,15,28,15.30
2013,03,31,15,29,15.40
2013,03,31,15,30,15.40
2013,03,31,15,31,15.40
2013,03,31,15,32,15.40
2013,03,31,15,33,15.40
2013,03,31,15,34,15.40
2013,03,31,15,35,15.40
2013,03,31,15,36,15.50
2013,03,31,15,37,15.50
2013,03,31,15,38,15.60
2013,03,31,15,39,15.70
2013,03,31,15,40,15.70
2013,03,31,15,41,15.70
2013,03,31,15,42,15.70
2013,03,31,15,43,15.60
2013,03,31,15,44,15.60
2013,03,31,15,45,15.50
2013,03,31,15,46,15.50
2013,03,31,15,47,15.50
2013,03,31,15,48,15.50
2013,03,31,15,49,15.40
2013,03,31,15,50,15.40
2013,03,31,15,51,15.30
2013,03,31,15,52,15.30
2013,03,31,15,53,15.40
2013,03,31,15,54,15.40
2013,03,31,15,55,15.40
2013,03,31,15,56,15.50
2013,03,31,15,57,15.50
2013,03,31,15,58,15.60
2013,03,31,15,59,15.60
2013,03,31,16,00,15.50
2013,03,31,16,01,15.50
2013,03,31,16,02,15.40
2013,03,31,16,03,15.50
2013,03,31,16,04,15.50
2013,03,31,16,05,15.50
2013,03,31,16,06,15.60
2013,03,31,16,07,15.70
2013,03,31,16,08,15.80
2013,03,31,16,09,15.80
2013,03,31,16,10,15.90
2013,03,31,16,11,15.90
2013,03,31,16,12,15.80
2013,03,31,16,13,15.80
2013,03,31,16,14,15.80
2013,03,31,16,15,15.80
2013,03,31,16,16,15.80
2013,03,31,16,17,15.80
2013,03,31,16,18,15.70
2013,03,31,16,19,15.70
2013,03,31,16,20,15.60
2013,03,31,16,21,15.50
2013,03,31,16,22,15.40
2013,03,31,16,23,15.40
2013,03,31,16,24,15.40
2013,03,31,16,25,15.50
2013,03,31,16,26,15.50
2013,03,31,16,27,15.50
2013,03,31,16,28,15.50
2013,03,31,16,29,15.50
2013,03,31,16,30,15.50
2013,03,31,16,31,15.40
2013,03,31,16,32,15.40
2013,03,31,16,33,15.30
2013,03,31,16,34,15.30
2013,03,31,16,35,15.30
2013,03,31,16,36,15.30
2013,03,31,16,37,15.30
2013,03,31,16,38,15.40
2013,03,31,16,39,15.50
2013,03,31,16,40,15.60
2013,03,31,16,41,15.60
2013,03,31,16,42,15.60
2013,03,31,16,43,15.60
2013,03,31,16,44,15.70
2013,03,31,16,45,15.70
2013,03,31,16,46,15.70
2013,03,31,16,47,15.70
2013,03,31,16,48,15.70
2013,03,31,16,49,15.70
2013,03,31,16,50,15.70
2013,03,31,16,51,15.80
2013,03,31,16,52,15.80
2013,03,31,16,53,15.80
2013,03,31,16,54,15.80
2013,03,31,16,55,15.90
2013,03,31,16,56,15.90
2013,03,31,16,57,15.90
2013,03,31,16,58,15.90
2013,03,31,16,59,15.90
2013,03,31,17,00,16.00
2013,03,31,17,01,16.00
2013,03,31,17,02,16.00
2013,03,31,17,03,16.10
2013,03,31,17,04,16.10
2013,03,31,17,05,16.10
2013,03,31,17,06,16.10
2013,03,31,17,07,16.20
2013,03,31,17,08,16.10
2013,03,31,17,09,16.00
2013,03,31,17,10,16.00
2013,03,31,17,11,16.10
2013,03,31,17,12,16.20
2013,03,31,17,13,16.20
2013,03,31,17,14,16.30
2013,03,31,17,15,16.30
2013,03,31,17,16,16.30
2013,03,31,17,17,16.20
2013,03,31,17,18,16.20
2013,03,31,17,19,16.00
2013,03,31,17,20,16.00
2013,03,31,17,21,15.90
2013,03,31,17,22,15.90
2013,03,31,17,23,15.80
2013,03,31,17,24,15.80
2013,03,31,17,25,15.80
2013,03,31,17,26,15.80
2013,03,31,17,27,15.80
2013,03,31,17,28,15.80
2013,03,31,17,29,15.80
2013,03,31,17,30,15.80
2013,03,31,17,31,15.80
2013,03,31,17,32,15.80
2013,03,31,17,33,15.80
2013,03,31,17,34,15.70
2013,03,31,17,35,15.70
2013,03,31,17,36,15.80
2013,03,31,17,37,15.80
2013,03,31,17,38,15.80
2013,03,31,17,39,15.90
2013,03,31,17,40,15.90
2013,03,31,17,41,15.90
2013,03,31,17,42,16.00